Regional Weather Roundup
Issued by NWS

Home | Current Version | Previous Version | Text Only | Print | Product List | Glossary Off
Versions: 1 2 3 4 5 6 7 8 9 10 11 12 13 14 15 16 17 18 19 20 21 22 23 24 25 26 27 28 29 30 31 32 33 34 35 36 37 38 39 40 41 42 43 44 45 46 47 48 49 50

000
ASUS45 KSLC 310710
RWRUT
UTAH REGIONAL WEATHER ROUNDUP
NATIONAL WEATHER SERVICE SALT LAKE CITY UT
100 AM MDT FRI JUL 31 2015

UTZ001>011-023>025-310800-

NORTHERN UTAH

CITY           SKY/WX    TMP DP  RH WIND       PRES   REMARKS
BRIGHAM CITY   CLEAR     68  41  36 N3        30.23S
HILL AFB       CLEAR     72  29  20 E10       30.26S
LOGAN          CLEAR     59  43  55 CALM      30.27R
OGDEN          CLEAR     70  31  23 S5        30.23S
PROVO AIRPORT  PTCLDY    61  39  44 CALM      30.25R
SALT LAKE CITY PTCLDY    68  40  35 CALM      30.22R
VERNAL         CLEAR     65  30  27 CALM      30.27R
WENDOVER       PTCLDY    72  30  21 SW5       30.23S
HEBER CITY     CLEAR     50  34  53 SE3       30.35R
WEST JORDAN    CLEAR     66  34  30 CALM      30.25R

$$

UTZ012>022-026-027-310800-

SOUTHERN/CENTRAL UTAH

CITY           SKY/WX    TMP DP  RH WIND       PRES   REMARKS
BLANDING       MOCLDY    68  49  51 NE8       30.44R
BRYCE CANYON   MOCLDY    60  42  51 W7        30.47S
CEDAR CITY     MOCLDY    72  28  19 SE6       30.28S
DELTA          MOCLDY    73  24  16 NE5       30.23S
HANKSVILLE     PTCLDY    72  23  16 CALM      30.20S
MILFORD        PTCLDY    68  20  16 NW8       30.22S
MOAB/CYNLANDS  CLEAR     74  21  13 CALM      30.17R
PRICE          PTCLDY    69  18  14 NW3       30.31S
ST GEORGE      SUNNY     86  50  28 SE6       30.11S
KANAB          MOCLDY    72  52  49 N6        30.31S

$$

REGIONAL REPORTS     COLORADO/ARIZONA

CITY           SKY/WX    TMP DP  RH WIND       PRES   REMARKS
CRAIG, CO      CLEAR     50  35  56 CALM      30.35S
GRAND JUNCTION PTCLDY    67  28  23 E5        30.21R
RIFLE          CLEAR     64  32  30 CALM      30.30R
MONTROSE       PTCLDY    69  35  28 S13       30.32R
CORTEZ         CLEAR     68  55  63 S20       30.39R
PAGE, AZ       MOCLDY    83  49  30 VRB5      30.20R
GRAND CANYON   CLOUDY    65  47  52 CALM      30.40S
KINGMAN        MOCLDY    76  54  46 SE3       30.12F
FLAGSTAFF      MOCLDY    54  54 100 CALM      30.44S

$$

REGIONAL REPORTS    NEVADA/IDAHO/WYOMING

CITY           SKY/WX    TMP DP  RH WIND       PRES   REMARKS
LAS VEGAS, NV  CLOUDY    92  52  25 SW10      29.98F
ELY            MOCLDY    61  25  25 S8        30.35R
ELKO           PTCLDY    73  24  16 NE10      30.28S
POCATELLO, ID  CLEAR     61  33  35 E5        30.26R
BURLEY         PTCLDY    59  39  47 CALM      30.22S
EVANSTON, WY   CLEAR     60  23  24 SE3       30.46S
ROCK SPRINGS   CLEAR     60  19  20 S7        30.40S
KEMMERER       CLEAR     57  28  33 NW10      30.46S

$$



USA.gov is the U.S. government's official web portal to all federal, state and local government web resources and services.